• In Kazakhstan
  • List of Countries
  • For 7 days
  • Water Temperature
  • Satellite Maps
  • Weather Map
  • News
  • Weather Widgets
  • user-avatar
    Login

    Hourly Weather Ajdyn

    Today, 19 September, Tuesday

    Time Temperature Precipitation Wind Pressure Humidity
    00:00 +26°C° 0 mm 1 mps 755 mmHg 50%
    01:00 +25°C° 0 mm 1 mps 755 mmHg 50%
    02:00 +23°C° 0 mm 0 mps 755 mmHg 40%
    03:00 +25°C° 0 mm 1 mps 755 mmHg 38%
    04:00 +25°C° 0 mm 1 mps 755 mmHg 36%
    05:00 +25°C° 0 mm 1 mps 755 mmHg 34%
    06:00 +27°C° 0 mm 1 mps 755 mmHg 30%
    07:00 +30°C° 0 mm 1 mps 755 mmHg 27%
    08:00 +33°C° 0 mm 1 mps 755 mmHg 24%
    09:00 +35°C° 0 mm 1 mps 755 mmHg 21%
    10:00 +37°C° 0 mm 1 mps 755 mmHg 18%
    11:00 +41°C° 0 mm 1 mps 755 mmHg 15%
    12:00 +41°C° 0 mm 2 mps 755 mmHg 14%
    13:00 +43°C° 0 mm 3 mps 755 mmHg 13%
    14:00 +42°C° 0 mm 4 mps 755 mmHg 14%
    15:00 +40°C° 0 mm 3 mps 755 mmHg 16%
    16:00 +39°C° 0 mm 3 mps 755 mmHg 17%
    17:00 +38°C° 0 mm 2 mps 755 mmHg 18%
    18:00 +35°C° 0 mm 2 mps 755 mmHg 24%
    19:00 +31°C° 0 mm 1 mps 755 mmHg 30%
    20:00 +28°C° 0 mm 1 mps 756 mmHg 35%
    21:00 +27°C° 0 mm 1 mps 756 mmHg 36%
    22:00 +27°C° 0 mm 1 mps 756 mmHg 37%
    23:00 +27°C° 0 mm 1 mps 756 mmHg 38%

    Tomorrow, 20 September, Wednesday

    Time Temperature Precipitation Wind Pressure Humidity
    00:00 +26°C° 0 mm 1 mps 756 mmHg 38%
    01:00 +26°C° 0 mm 1 mps 756 mmHg 37%
    02:00 +26°C° 0 mm 1 mps 756 mmHg 37%
    03:00 +26°C° 0 mm 1 mps 756 mmHg 36%
    04:00 +25°C° 0 mm 1 mps 756 mmHg 35%
    05:00 +25°C° 0 mm 2 mps 756 mmHg 34%
    06:00 +27°C° 0 mm 2 mps 756 mmHg 31%
    07:00 +29°C° 0 mm 2 mps 756 mmHg 27%
    08:00 +32°C° 0 mm 2 mps 756 mmHg 23%
    09:00 +35°C° 0 mm 2 mps 756 mmHg 22%
    10:00 +37°C° 0 mm 3 mps 756 mmHg 20%
    11:00 +39°C° 0 mm 3 mps 756 mmHg 18%
    12:00 +40°C° 0 mm 4 mps 756 mmHg 17%
    13:00 +41°C° 0 mm 4 mps 756 mmHg 17%
    14:00 +41°C° 0 mm 4 mps 756 mmHg 16%
    15:00 +38°C° 0 mm 4 mps 756 mmHg 20%
    16:00 +37°C° 0 mm 4 mps 756 mmHg 23%
    17:00 +35°C° 0 mm 3 mps 756 mmHg 27%
    18:00 +33°C° 0 mm 3 mps 756 mmHg 36%
    19:00 +29°C° 0 mm 2 mps 756 mmHg 45%
    20:00 +26°C° 0 mm 2 mps 756 mmHg 54%
    21:00 +26°C° 0 mm 2 mps 756 mmHg 55%
    22:00 +25°C° 0 mm 2 mps 756 mmHg 57%
    23:00 +25°C° 0 mm 2 mps 756 mmHg 58%

    Day after tomorrow, 21 September, Thursday

    Time Temperature Precipitation Wind Pressure Humidity
    00:00 +24°C° 0 mm 2 mps 756 mmHg 62%
    01:00 +24°C° 0 mm 2 mps 756 mmHg 65%
    02:00 +24°C° 0 mm 2 mps 756 mmHg 69%
    03:00 +23°C° 0 mm 2 mps 756 mmHg 73%
    04:00 +23°C° 0 mm 2 mps 756 mmHg 78%
    05:00 +21°C° 0 mm 2 mps 756 mmHg 83%
    06:00 +24°C° 0 mm 2 mps 756 mmHg 77%
    07:00 +25°C° 0 mm 2 mps 757 mmHg 70%
    08:00 +26°C° 0 mm 2 mps 757 mmHg 64%
    09:00 +28°C° 0 mm 2 mps 757 mmHg 55%
    10:00 +30°C° 0 mm 3 mps 757 mmHg 47%
    11:00 +31°C° 0 mm 3 mps 757 mmHg 38%
    12:00 +33°C° 0 mm 4 mps 757 mmHg 36%
    13:00 +33°C° 0 mm 4 mps 756 mmHg 34%
    14:00 +33°C° 0 mm 4 mps 756 mmHg 32%
    15:00 +32°C° 0 mm 4 mps 756 mmHg 35%
    16:00 +30°C° 0 mm 4 mps 756 mmHg 38%
    17:00 +28°C° 0 mm 4 mps 756 mmHg 40%
    18:00 +26°C° 0 mm 3 mps 757 mmHg 50%
    19:00 +24°C° 0 mm 3 mps 757 mmHg 59%
    20:00 +21°C° 0 mm 2 mps 758 mmHg 69%
    21:00 +20°C° 0 mm 2 mps 758 mmHg 73%
    22:00 +20°C° 0 mm 1 mps 758 mmHg 77%
    23:00 +20°C° 0 mm 1 mps 758 mmHg 81%

    22 September, Friday

    Time Temperature Precipitation Wind Pressure Humidity
    00:00 +19°C° 0 mm 1 mps 758 mmHg 82%
    01:00 +19°C° 0 mm 1 mps 758 mmHg 83%
    02:00 +19°C° 0 mm 1 mps 758 mmHg 85%
    03:00 +18°C° 0 mm 1 mps 758 mmHg 85%
    04:00 +18°C° 0 mm 1 mps 758 mmHg 85%
    05:00 +18°C° 0 mm 1 mps 758 mmHg 85%
    06:00 +20°C° 0 mm 1 mps 758 mmHg 75%
    07:00 +20°C° 0 mm 2 mps 758 mmHg 65%
    08:00 +23°C° 0 mm 2 mps 758 mmHg 54%
    09:00 +25°C° 0 mm 2 mps 758 mmHg 46%
    10:00 +27°C° 0 mm 2 mps 759 mmHg 38%
    11:00 +29°C° 0 mm 2 mps 759 mmHg 30%
    12:00 +29°C° 0 mm 3 mps 759 mmHg 29%
    13:00 +30°C° 0 mm 4 mps 759 mmHg 27%
    14:00 +30°C° 0 mm 5 mps 758 mmHg 26%
    15:00 +29°C° 0 mm 5 mps 758 mmHg 29%
    16:00 +28°C° 0 mm 5 mps 759 mmHg 32%
    17:00 +27°C° 0 mm 5 mps 759 mmHg 36%
    18:00 +25°C° 0 mm 5 mps 759 mmHg 44%
    19:00 +22°C° 0 mm 4 mps 759 mmHg 53%
    20:00 +20°C° 0 mm 3 mps 760 mmHg 62%
    21:00 +19°C° 0 mm 3 mps 760 mmHg 65%
    22:00 +18°C° 0 mm 3 mps 760 mmHg 68%
    23:00 +18°C° 0 mm 3 mps 760 mmHg 72%

    23 September, Saturday

    Time Temperature Precipitation Wind Pressure Humidity
    00:00 +17°C° 0 mm 3 mps 760 mmHg 74%
    01:00 +17°C° 0 mm 3 mps 760 mmHg 75%
    02:00 +16°C° 0 mm 3 mps 760 mmHg 77%
    03:00 +16°C° 0 mm 3 mps 760 mmHg 78%
    04:00 +14°C° 0 mm 3 mps 760 mmHg 79%
    05:00 +14°C° 0 mm 3 mps 760 mmHg 80%
    06:00 +17°C° 0 mm 3 mps 760 mmHg 72%
    07:00 +18°C° 0 mm 3 mps 760 mmHg 64%
    08:00 +20°C° 0 mm 3 mps 760 mmHg 56%
    09:00 +22°C° 0 mm 3 mps 760 mmHg 46%
    10:00 +26°C° 0 mm 3 mps 760 mmHg 37%
    11:00 +28°C° 0 mm 3 mps 760 mmHg 27%
    12:00 +29°C° 0 mm 4 mps 760 mmHg 25%
    13:00 +30°C° 0 mm 4 mps 759 mmHg 22%
    14:00 +32°C° 0 mm 5 mps 759 mmHg 20%
    15:00 +30°C° 0 mm 5 mps 759 mmHg 22%
    16:00 +29°C° 0 mm 5 mps 759 mmHg 24%
    17:00 +28°C° 0 mm 5 mps 759 mmHg 26%
    18:00 +26°C° 0 mm 5 mps 759 mmHg 32%
    19:00 +22°C° 0 mm 4 mps 760 mmHg 39%
    20:00 +20°C° 0 mm 4 mps 760 mmHg 45%
    21:00 +19°C° 0 mm 3 mps 760 mmHg 48%
    22:00 +19°C° 0 mm 3 mps 760 mmHg 50%
    23:00 +18°C° 0 mm 3 mps 760 mmHg 53%

    24 September, Sunday

    Time Temperature Precipitation Wind Pressure Humidity
    00:00 +17°C° 0 mm 3 mps 760 mmHg 54%
    01:00 +17°C° 0 mm 3 mps 759 mmHg 56%
    02:00 +17°C° 0 mm 3 mps 759 mmHg 57%
    03:00 +16°C° 0 mm 3 mps 759 mmHg 58%
    04:00 +16°C° 0 mm 3 mps 759 mmHg 59%
    05:00 +16°C° 0 mm 3 mps 759 mmHg 60%
    06:00 +17°C° 0 mm 3 mps 759 mmHg 55%
    07:00 +19°C° 0 mm 3 mps 759 mmHg 49%
    08:00 +21°C° 0 mm 3 mps 759 mmHg 43%
    09:00 +25°C° 0 mm 3 mps 759 mmHg 37%
    10:00 +27°C° 0 mm 2 mps 759 mmHg 30%
    11:00 +30°C° 0 mm 2 mps 759 mmHg 24%
    12:00 +30°C° 0 mm 3 mps 759 mmHg 22%
    13:00 +31°C° 0 mm 3 mps 758 mmHg 20%
    14:00 +33°C° 0 mm 4 mps 758 mmHg 18%
    15:00 +32°C° 0 mm 4 mps 758 mmHg 20%
    16:00 +30°C° 0 mm 4 mps 758 mmHg 22%
    17:00 +30°C° 0 mm 4 mps 758 mmHg 24%
    18:00 +27°C° 0 mm 4 mps 758 mmHg 30%
    19:00 +25°C° 0 mm 3 mps 758 mmHg 36%
    20:00 +21°C° 0 mm 3 mps 758 mmHg 41%
    21:00 +21°C° 0 mm 3 mps 758 mmHg 42%
    22:00 +20°C° 0 mm 3 mps 758 mmHg 43%
    23:00 +20°C° 0 mm 3 mps 758 mmHg 43%
    Show more